Погода в Кировограде

Погода в Кировограде : погода сейчас, прогноз погоды и архив. Всё, что Вы хотите узнать о погоде в Кировограде!

Хотите узнать прогноз погоды в Кировограде? Тогда Вам сюда: Погода в Кировограде

Поиск расширенной информации на нашем сайте:

Другие новости

Новости СМИ2

Главная страница сайта

Новости сайта

02.10.2013

Напоминаем, что на нашем новом сайте вы можете получить высокодетализированные прогнозы погоды по пунктам России, СНГ и мира (включающие важные для авиации метеовеличины, такие как направление и скорость ветра, видимость, явления погоды, количество и форма облачности, нижняя и верхняя граница облачности), а также ознакомиться с разнообразными материалами по авиационной метеорологии и подборкой полезных ссылок на эту тему.

Сайт Метеоцентр.Азия посвящён разработке технологий оптимизации авиаметеорологического обслуживания, включая проектирование и перспективное создание нескольких автоматизированных авиаметеорологических систем:
- система выпуска высокодетальных прогностических карт явлений погоды для нижнего воздушного пространства по России и ближнему зарубежью;
- система верификации прогнозов TAF (выпускаемых синоптиками официальных АМСГ РФ и ближнего зарубежья) и AUTOTAF (выпускаемых сайтом Метеоцентр.Азия) - выявление ошибок, онлайн-сопоставление с фактической погодой METAR, автоматическое внесение коррективов в прогнозы при резком отклонении фактической погоды от прогноза, подсчёт оправдываемости прогнозов по элементам и в целом;
- система обработки, анализа и отображения авиаметеорологической информации для применения провайдерами метеорологической информации.

Рекомендуем: Банкетный зал на 100 человек monaco банкетный зал на 120 человек.

Погода в Кировограде - сегодня

Время (UTC), дата Ветер
(°,м/с) 
Видим.   Явления Облачность Т
(°С)
Тd
(°С)
f(%) Тe
(°С)
Pmin
(гПа)
dP
(гПа)
Po
(мм)
O2
(г/м3)
Тmin Tmax R s Состояние
почвы
09 18.02.17 220 (ЮЗ) 20000 м    10/10 210 м 
[St]
+1.4 -1.1 83 -1  1020.9  -0.3  750  301           
12 18.02.17 210 (ЮЗ) 20000 м    10/10 240 м 
[St]
+2 -1.4 78 1020.4  -0.5  749  300           
15 18.02.17 230 (ЮЗ) 10 км  в посл. час ливневой дождь  10/10 180 м кучево-дожд. 
[Cb calv]
+1.5 +0.4 92 1020.8  0.4  750  300           
18 18.02.17 250 (З) 4000 м  дымка{ливн. осадки}  10/10 270 м 
[St]
+1 +0.2 94 1022.1  1.2  750  301    +2.3  0.0     
21 18.02.17 250 (З) 4000 м  дымка  10/10 270 м 
[St]
+1.1 -0.3 90 1023.3  1.2  751  302           
00 19.02.17 290 (З) 2000 м  дымка  10/10 120 м 
[St]
+1 +0.5 96 +2  1024.3  752  302           
03 19.02.17 290 (З) 0200 м  туман  ?/?  
+0.8 +0.8 100 1025.5  1.1  753  302           
06 19.02.17 290 (З) 2000 м  в посл. час туман  10/10 600 м 
[Sc]
+0.7 +0.4 98 1026.7  1.2  754  303  +0.7      равномерный
мокрый или
старый снег
100% 
09 19.02.17 290 (З) 20000 м    9/9 870 м 
[Sc]
+2.5 -0.5 81 +1  1027.4  0.8  754  301           
12 19.02.17 270 (З) 20000 м    10/10 800 м 
[Sc]
+3.4 -3.3 61 +2  1026.9  -0.4  754  301           
15 19.02.17 220 (ЮЗ) 20000 м    ясно 
+3.4 -3.7 60 +2  1026.1  -0.8  754  300           
18 19.02.17 200 (Ю) 10 км    ясно 
+0 -3 80 -2  1026.2  -0.2  753  304    +4.1       
21 19.02.17 190 (Ю) 10 км    ясно 
-2 -4.5 83 -4  1025.5  -0.8  753  306           
00 20.02.17 150 (ЮВ) 10 км    ясно 
-3.4 -5.2 87 -5  1025.1  -0.5  752  308           
03 20.02.17 150 (ЮВ) 10 км    3/0 верхняя 
[Ci fib]
-3.8 -4.6 94 -5  1024.1  -1  752  308           
06 20.02.17 150 (ЮВ) 4000 м  дымка  3/0 верхняя 
[Ci fib]
-4.8 -5.4 96 -7  1023.6  -0.6  751  309  -5.3      равномерный
мокрый или
старый снег
100% 
09 20.02.17 200 (Ю) 20000 м    8/3 600 м верхняя 
[Sc|Ci fib]
+2 -1.4 78 1022.4  -0.6  751  300           
12 20.02.17 200 (Ю) 20000 м    10/8 420 м верхняя 
[St|Ci fib]
+2.2 -1.5 76 +3  1020.4  -2  749  300           
15 20.02.17 тихо ()   20000 м    10/0 средняя, верхняя 
[Ac trans|Ci fib]
+0.8 -2.4 79 +1  1018.1  -2.3  748  301           
18 20.02.17 тихо ()   10 км  слаб. ливневой дождь  10/10 930 м кучево-дожд. 
[Cb calv]
+0 -2.1 86 1017.1  -1.1  747  301    +2.5  0.0     
21 20.02.17 тихо ()   10 км  {ливн. осадки}  10/10 960 м 
[Sc]
-0.2 -1.4 92 -0  1015.1  -1.9  745  301           
00 21.02.17 тихо ()   2000 м  дымка{ливн. осадки}  10/10 630 м 
[Sc]
-0.1 -1 94 -0  1012.9  -2.2  744  300      0.0     
03 21.02.17 тихо ()   4000 м  дымка  10/10 750 м 
[Sc]
+0.1 -1 92 1010.3  -2.5  742  299           
06 21.02.17 210 (ЮЗ) 4000 м  дымка  9/0 средняя, верхняя 
[Ac trans|Ci fib]
-0.2 -1.4 92 -2  1008.9  -1.4  741  299  -0.8    0.0  равномерный
мокрый или
старый снег
100% 
09 21.02.17 240 (ЮЗ) 10 км    9/0 верхняя 
[Ci fib]
+3 -0.8 76 +1  1007.3  -1.3  740  295           
Время (UTC), дата Ветер
(°,м/с) 
Видим.   Явления Облачность Т
(°С)
Тd
(°С)
f(%) Тe
(°С)
Pmin
(гПа)
dP
(гПа)
Po
(мм)
O2
(г/м3)
Тmin Tmax R s Состояние
почвы

Для получения пояснительной информации подведите курсор к названию столбца.

ПОГОДА в Кировограде - архив

Всё, что Вы хотите узнать о погоде в Кировограде - удобно и подробно!

Выберите нужную дату (начиная с 1 января 2015* года) и нажмите кнопку "Найти".
Будут отображены архивные сводки погоды по пункту Кировоград, начиная с указанной даты.


Отображать данные в формате CSV (для использования в таблицах Excel)


Внимание! Наш архив погоды предназначен исключительно для личного некоммерческого использования в познавательных целях. Если Вам необходимы официальные справки о состоянии погоды (для производственных, юридических, коммерческих и т.п. целей), обращайтесь в органы Росгидромета.

*Примечание: данная дата относится к архиву по метеостанциям СССР (Россия, СНГ, Балтия).
Архив по метеостанциям Зарубежной Европы и Азии (кроме Китая) хранится 10 дней, по другим регионам земного шара (Китай, Африка, Америка, Австралия, Океания) - 1 день.

Кировоград - район местоположения метеостанции


Название, широта, долгота, высота метеостанции:
Кировоград 48.5°ш. 32.2°д. 171 м над ур. моря [Украина]

Дополнительная информация

В oтличие oт бoльшинства пoгoдных сайтoв мы публикуем пoдрoбную метеoинфoрмацию в детальнoм прoфессиoнальнoм фoрмате.

Характеристики температуры и влажнoсти вoздуха измеряются на высoте 2 м в тени вдали oт зданий и деревьев.
Скoрoсть ветра измеряется на высoте 10 м (на урoвне рoста челoвека скoрoсть ветра ниже в 1.5-2 раза). Если метеoстанция нахoдится в гoрoде или в лесу, тo скoрoсть ветра занижена на 2-4 м/с пo сравнению с oткрытым местoм. Скoрoсть ветра над акватoриями крупных рек и oзёр, а также на вершинах хoлмoв на 2-5 м/с выше, чем в oбычных услoвиях.
Атмoсфернoе давление в разных тoчках местнoсти мoжет значительнo oтличаться oт давления на метеoстанции, в зависимoсти oт услoвий рельефа (при пoдъёме на 10 м давление пoнижается примернo на 1 мм рт.ст.).